Tracking 19634 objects as of 23-May-2019
HD Live streaming from Space Station
objects crossing your sky now

EKRAN 15

Track EKRAN 15 now!
EKRAN 15 is classified as:


NORAD ID: 16729
Int'l Code: 1986-038A
Perigee: 36,814.7 km
Apogee: 36,928.7 km
Inclination: 15.4 °
Period: 1,491.5 minutes
Semi major axis: 43242 km
RCS: 5.2216 m2 (large)
Launch date: May 24, 1986
Source: Commonwealth of Independent States (former USSR) (CIS)
Launch site: TYURATAM MISSILE AND SPACE COMPLEX (TTMTR)
aabbcc
Your satellite tracking list
Your tracking list is empty




NASA's NSSDC Master Catalog

Two Line Element Set (TLE):
1 16729U 86038A   19141.51433361 -.00000106 +00000-0 +00000-0 0  9990
2 16729 015.3514 342.7970 0013186 332.9748 027.9590 00.96545941093415
Source of the keplerian elements: AFSPC